Hourly Weather Kitnowo

Today, 25 October, Sunday

Time Temperature Precipitation Wind Pressure Humidity
00:00 +9°C° 0 mm 2 mps 744 mmHg 93%
01:00 +9°C° 0 mm 2 mps 744 mmHg 94%
02:00 +9°C° 0 mm 2 mps 744 mmHg 94%
03:00 +9°C° 0 mm 2 mps 744 mmHg 94%
04:00 +8°C° 0 mm 3 mps 743 mmHg 95%
05:00 +8°C° 0 mm 3 mps 744 mmHg 95%
06:00 +8°C° 0 mm 3 mps 744 mmHg 95%
07:00 +8°C° 0 mm 3 mps 744 mmHg 95%
08:00 +10°C° 0 mm 3 mps 744 mmHg 89%
09:00 +11°C° 0 mm 3 mps 744 mmHg 83%
10:00 +13°C° 0 mm 3 mps 744 mmHg 77%
11:00 +13°C° 0 mm 4 mps 744 mmHg 74%
12:00 +14°C° 0 mm 4 mps 744 mmHg 71%
13:00 +15°C° 0 mm 4 mps 744 mmHg 68%
14:00 +14°C° 0 mm 3 mps 743 mmHg 72%
15:00 +13°C° 0 mm 3 mps 743 mmHg 76%
16:00 +13°C° 0 mm 3 mps 742 mmHg 79%
17:00 +12°C° 0 mm 3 mps 743 mmHg 81%
18:00 +11°C° 0 mm 4 mps 743 mmHg 83%
19:00 +11°C° 0 mm 4 mps 743 mmHg 85%
20:00 +11°C° 0 mm 4 mps 743 mmHg 87%
21:00 +10°C° 0 mm 4 mps 742 mmHg 88%
22:00 +10°C° 0 mm 4 mps 742 mmHg 90%
23:00 +10°C° 0 mm 4 mps 742 mmHg 89%

Tomorrow, 26 October, Monday

Time Temperature Precipitation Wind Pressure Humidity
00:00 +10°C° 0 mm 4 mps 742 mmHg 89%
01:00 +8°C° 0 mm 4 mps 742 mmHg 89%
02:00 +8°C° 0 mm 4 mps 741 mmHg 89%
03:00 +8°C° 0 mm 4 mps 741 mmHg 90%
04:00 +8°C° 0 mm 4 mps 740 mmHg 90%
05:00 +8°C° 0 mm 4 mps 740 mmHg 92%
06:00 +8°C° 0 mm 4 mps 740 mmHg 93%
07:00 +8°C° 0 mm 4 mps 740 mmHg 94%
08:00 +10°C° 0 mm 4 mps 740 mmHg 92%
09:00 +10°C° 0 mm 5 mps 740 mmHg 91%
10:00 +10°C° 0 mm 5 mps 740 mmHg 89%
11:00 +12°C° 0 mm 5 mps 739 mmHg 86%
12:00 +13°C° 0 mm 5 mps 739 mmHg 82%
13:00 +14°C° 0 mm 4 mps 739 mmHg 79%
14:00 +13°C° 0 mm 4 mps 739 mmHg 81%
15:00 +13°C° 0 mm 4 mps 739 mmHg 84%
16:00 +12°C° 0 mm 3 mps 738 mmHg 86%
17:00 +12°C° 0 mm 3 mps 738 mmHg 87%
18:00 +12°C° 0 mm 3 mps 738 mmHg 87%
19:00 +12°C° 0 mm 3 mps 739 mmHg 88%
20:00 +12°C° 0.1 mm 3 mps 739 mmHg 87%
21:00 +12°C° 0.1 mm 3 mps 739 mmHg 87%
22:00 +12°C° 0.1 mm 3 mps 739 mmHg 87%
23:00 +12°C° 0 mm 3 mps 739 mmHg 87%

Day after tomorrow, 27 October, Tuesday

Time Temperature Precipitation Wind Pressure Humidity
00:00 +12°C° 0 mm 3 mps 739 mmHg 88%
01:00 +12°C° 0 mm 3 mps 739 mmHg 88%
02:00 +11°C° 0 mm 3 mps 739 mmHg 89%
03:00 +11°C° 0 mm 3 mps 739 mmHg 91%
04:00 +10°C° 0 mm 3 mps 739 mmHg 92%
05:00 +10°C° 0 mm 2 mps 739 mmHg 93%
06:00 +10°C° 0 mm 2 mps 739 mmHg 94%
07:00 +9°C° 0 mm 2 mps 740 mmHg 95%
08:00 +10°C° 0 mm 2 mps 740 mmHg 92%
09:00 +12°C° 0 mm 2 mps 740 mmHg 90%
10:00 +12°C° 0 mm 2 mps 740 mmHg 87%
11:00 +13°C° 0.1 mm 2 mps 740 mmHg 86%
12:00 +13°C° 0.1 mm 2 mps 740 mmHg 85%
13:00 +13°C° 0.1 mm 3 mps 740 mmHg 83%
14:00 +13°C° 0 mm 3 mps 740 mmHg 83%
15:00 +13°C° 0 mm 3 mps 740 mmHg 82%
16:00 +13°C° 0 mm 3 mps 740 mmHg 81%
17:00 +13°C° 0.1 mm 3 mps 740 mmHg 83%
18:00 +13°C° 0.1 mm 3 mps 740 mmHg 85%
19:00 +12°C° 0.1 mm 3 mps 740 mmHg 87%
20:00 +12°C° 0.5 mm 3 mps 740 mmHg 89%
21:00 +11°C° 0.5 mm 3 mps 741 mmHg 91%
22:00 +11°C° 0.5 mm 3 mps 741 mmHg 93%
23:00 +10°C° 0.2 mm 3 mps 741 mmHg 93%

28 October, Wednesday

Time Temperature Precipitation Wind Pressure Humidity
00:00 +10°C° 0.2 mm 3 mps 741 mmHg 93%
01:00 +10°C° 0.2 mm 3 mps 742 mmHg 93%
02:00 +9°C° 0 mm 2 mps 742 mmHg 94%
03:00 +8°C° 0 mm 2 mps 742 mmHg 95%
04:00 +7°C° 0 mm 2 mps 742 mmHg 96%
05:00 +7°C° 0 mm 2 mps 742 mmHg 96%
06:00 +7°C° 0 mm 2 mps 743 mmHg 96%
07:00 +7°C° 0 mm 2 mps 743 mmHg 95%
08:00 +8°C° 0 mm 2 mps 743 mmHg 89%
09:00 +9°C° 0 mm 2 mps 743 mmHg 83%
10:00 +12°C° 0 mm 2 mps 744 mmHg 77%
11:00 +11°C° 0 mm 3 mps 744 mmHg 75%
12:00 +12°C° 0 mm 3 mps 743 mmHg 72%
13:00 +13°C° 0 mm 4 mps 743 mmHg 69%
14:00 +12°C° 0 mm 3 mps 743 mmHg 73%
15:00 +11°C° 0 mm 3 mps 743 mmHg 77%
16:00 +11°C° 0 mm 3 mps 743 mmHg 80%
17:00 +10°C° 0 mm 3 mps 743 mmHg 82%
18:00 +10°C° 0 mm 3 mps 743 mmHg 83%
19:00 +9°C° 0 mm 3 mps 743 mmHg 85%
20:00 +9°C° 0 mm 3 mps 743 mmHg 86%
21:00 +9°C° 0 mm 3 mps 743 mmHg 88%
22:00 +9°C° 0 mm 3 mps 743 mmHg 89%
23:00 +9°C° 0 mm 3 mps 743 mmHg 88%

29 October, Thursday

Time Temperature Precipitation Wind Pressure Humidity
00:00 +9°C° 0 mm 3 mps 743 mmHg 87%
01:00 +9°C° 0 mm 3 mps 743 mmHg 87%
02:00 +8°C° 0 mm 3 mps 743 mmHg 87%
03:00 +8°C° 0 mm 3 mps 742 mmHg 87%
04:00 +7°C° 0 mm 3 mps 742 mmHg 87%
05:00 +7°C° 0 mm 3 mps 742 mmHg 85%
06:00 +7°C° 0 mm 3 mps 743 mmHg 84%
07:00 +7°C° 0 mm 4 mps 743 mmHg 82%
08:00 +8°C° 0 mm 4 mps 743 mmHg 79%
09:00 +10°C° 0 mm 4 mps 743 mmHg 76%
10:00 +10°C° 0 mm 5 mps 743 mmHg 73%
11:00 +10°C° 0 mm 5 mps 743 mmHg 70%
12:00 +11°C° 0 mm 6 mps 743 mmHg 68%
13:00 +13°C° 0 mm 6 mps 743 mmHg 66%
14:00 +12°C° 0 mm 5 mps 743 mmHg 69%
15:00 +11°C° 0 mm 4 mps 743 mmHg 72%
16:00 +10°C° 0 mm 3 mps 744 mmHg 74%
17:00 +10°C° 0 mm 3 mps 744 mmHg 77%
18:00 +9°C° 0 mm 3 mps 744 mmHg 80%
19:00 +8°C° 0 mm 3 mps 745 mmHg 83%
20:00 +8°C° 0 mm 3 mps 745 mmHg 85%
21:00 +8°C° 0 mm 3 mps 745 mmHg 86%
22:00 +7°C° 0 mm 3 mps 746 mmHg 87%
23:00 +7°C° 0 mm 3 mps 746 mmHg 87%

30 October, Friday

Time Temperature Precipitation Wind Pressure Humidity
00:00 +7°C° 0 mm 3 mps 746 mmHg 87%
01:00 +7°C° 0 mm 3 mps 746 mmHg 87%
02:00 +6°C° 0 mm 4 mps 745 mmHg 86%
03:00 +6°C° 0 mm 4 mps 745 mmHg 85%
04:00 +6°C° 0 mm 4 mps 745 mmHg 84%
05:00 +7°C° 0 mm 5 mps 745 mmHg 83%
06:00 +7°C° 0 mm 5 mps 745 mmHg 82%
07:00 +7°C° 0 mm 5 mps 745 mmHg 80%
08:00 +8°C° 0 mm 6 mps 745 mmHg 81%
09:00 +8°C° 0 mm 6 mps 745 mmHg 82%
10:00 +8°C° 0 mm 6 mps 745 mmHg 83%
11:00 +9°C° 0 mm 6 mps 745 mmHg 83%
12:00 +9°C° 0 mm 5 mps 746 mmHg 83%
13:00 +10°C° 0 mm 5 mps 746 mmHg 83%
14:00 +10°C° 0 mm 5 mps 746 mmHg 83%
15:00 +12°C° 0 mm 5 mps 746 mmHg 83%
16:00 +12°C° 0 mm 5 mps 746 mmHg 83%
17:00 +12°C° 0 mm 5 mps 746 mmHg 83%
18:00 +12°C° 0 mm 5 mps 746 mmHg 84%
19:00 +10°C° 0 mm 5 mps 746 mmHg 85%
20:00 +10°C° 0 mm 5 mps 746 mmHg 84%
21:00 +12°C° 0 mm 4 mps 746 mmHg 84%
22:00 +12°C° 0 mm 4 mps 747 mmHg 83%
23:00 +11°C° 0 mm 4 mps 747 mmHg 85%
Show more